This demonstration page uses our WeatherBlox Daily Observations layout. Learn more.

Left ArrowRight Arrow

47.50024, -111.30081

Hourly Observations for April 25, 2016

Temp ( °F °C ) Dew Point ( °F °C ) Humidity (%) Winds ( mph kmh ) Pressure ( in mb ) Visibility ( mi km ) Precip ( " mm )
12:04 am 00:04 Cloudy 39 4 36 2 87 87 ENE 8 13 29.85 1011 10 16 0.00 0.00
12:13 am 00:13 Cloudy 39 4 36 2 87 87 NE 8 13 29.85 1011 10 16 0.00 0.00
12:53 am 00:53 Cloudy 39 3.9 35 1.7 86 86 E 6 9 29.87 1011 10 16 0.00 0.00
1:53 am 01:53 Cloudy 38 3.3 35 1.7 89 89 ENE 3 6 29.87 1012 10 16 0.00 0.00
2:17 am 02:17 Cloudy 38 3.3 35 1.7 89 89 ENE 7 11 29.88 1012 10 16 0.00 0.00
2:53 am 02:53 Cloudy 38 3.3 35 1.7 89 89 E 6 9 29.86 1011 10 16 0.00 0.00
3:04 am 03:04 Cloudy 37 3 36 2 93 93 E 7 11 29.85 1011 10 16 0.00 0.00
3:13 am 03:13 Cloudy 38 3.3 35 1.7 89 89 E 8 13 29.85 1011 10 16 0.00 0.00
3:23 am 03:23 Cloudy 38 3.3 35 1.7 89 89 ENE 8 13 29.85 1011 10 16 0.00 0.00
3:53 am 03:53 Cloudy 37 2.8 35 1.7 93 93 ENE 8 13 29.86 1011 10 16 0.00 0.00
4:07 am 04:07 Cloudy 37 2.8 35 1.7 93 93 E 7 11 29.85 1011 10 16 0.00 0.00
4:30 am 04:30 Cloudy 37 3 36 2 93 93 ENE 5 7 29.85 1011 10 16 0.00 0.00
4:53 am 04:53 Cloudy 37 2.8 36 2.2 96 96 NE 6 9 29.86 1011 1 2 0.00 0.00
5:07 am 05:07 Cloudy with Mist and Fog 37 2.8 36 2.2 96 96 ENE 6 9 29.85 1011 1 1 0.00 0.00
5:46 am 05:46 Cloudy with Mist and Fog 36 2 36 2 100 100 ENE 7 11 29.88 1012 3 5 0.00 0.00
5:53 am 05:53 Cloudy 36 2.2 35 1.7 97 97 ENE 7 11 29.86 1011 7 11 0.00 0.00
6:53 am 06:53 Cloudy 36 2.2 34 1.1 93 93 NE 7 11 29.88 1012 10 16 0.00 0.00
7:37 am 07:37 Cloudy 36 2.2 34 1.1 93 93 ENE 8 13 29.91 1013 10 16 0.00 0.00
7:53 am 07:53 Cloudy 36 2.2 34 1.1 93 93 E 6 9 29.88 1012 10 16 0.00 0.00
8:53 am 08:53 Cloudy with Light Rain 36 2.2 35 1.7 97 97 ENE 5 7 29.89 1012 7 11 0.00 0.03
9:04 am 09:04 Cloudy with Light Rain 37 3 36 2 93 93 ENE 6 9 29.88 1012 7 11 0.00 0.00
9:53 am 09:53 Cloudy with Light Rain 38 3.3 36 2.2 93 93 E 3 6 29.89 1012 10 16 0.00 0.03
10:42 am 10:42 Cloudy with Light Rain 39 4 36 2 87 87 Calm 29.88 1012 10 16 0.00 0.00
10:53 am 10:53 Cloudy with Light Rain 39 3.9 36 2.2 89 89 N 3 6 29.91 1013 10 16 0.01 0.25
11:53 am 11:53 Cloudy with Light Rain 41 5 37 2.8 86 86 NE 3 6 29.91 1013 9 14 0.00 0.03
12:53 pm 12:53 Cloudy with Light Rain 41 5 38 3.3 89 89 NNE 9 15 29.91 1013 10 16 0.01 0.25
1:16 pm 13:16 Cloudy with Light Rain 43 6 37 3 81 81 NNE 6 9 29.88 1012 10 16 0.00 0.00
1:33 pm 13:33 Cloudy with Light Rain 42 5.6 38 3.3 85 85 NE 7 11 29.88 1012 10 16 0.01 0.25
1:53 pm 13:53 Cloudy with Light Rain 42 5.6 39 3.9 89 89 NE 8 13 29.91 1013 10 16 0.01 0.25
2:03 pm 14:03 Cloudy with Light Rain 43 6 39 4 87 87 NE 6 9 29.88 1012 10 16 0.00 0.00
2:53 pm 14:53 Cloudy with Light Rain 43 6.1 39 3.9 86 86 NE 8 13 29.92 1013 10 16 0.00 0.03
3:09 pm 15:09 Cloudy 43 6.1 38 3.3 82 82 ENE 9 15 29.88 1012 10 16 0.00 0.03
3:43 pm 15:43 Cloudy with Light Rain 43 6.1 39 3.9 86 86 ENE 9 15 29.88 1012 10 16 0.00 0.03
3:53 pm 15:53 Cloudy with Light Rain 43 6.1 39 3.9 86 86 NE 9 15 29.93 1014 10 16 0.00 0.03
4:20 pm 16:20 Cloudy with Light Rain 43 6 37 3 81 81 N 9 15 29.91 1013 10 16 0.00 0.00
4:53 pm 16:53 Cloudy 43 6.1 37 2.8 80 80 NNE 8 13 29.94 1014 10 16 0.00 0.03
5:31 pm 17:31 Cloudy 42 5.6 38 3.3 85 85 ENE 6 9 29.91 1013 10 16 0.00 0.00
5:44 pm 17:44 Cloudy 43 6 37 3 81 81 NNE 7 11 29.91 1013 10 16 0.00 0.00
5:53 pm 17:53 Cloudy 42 5.6 37 2.8 82 82 NE 9 15 29.96 1015 10 16 0.00 0.00
6:15 pm 18:15 Cloudy 41 5 37 2.8 86 86 NE 7 11 29.94 1014 10 16 0.00 0.00
6:24 pm 18:24 Cloudy 41 5 37 3 87 87 NE 8 13 29.94 1014 10 16 0.00 0.00
6:53 pm 18:53 Cloudy 41 5 37 2.8 86 86 NE 9 15 29.97 1015 10 16 0.00 0.00
7:14 pm 19:14 Cloudy 39 4 37 3 93 93 NE 8 13 29.97 1015 10 16 0.00 0.00
7:43 pm 19:43 Cloudy 40 4.4 36 2.2 86 86 undefined N/A 29.97 1015 10 16 0.00 0.00
7:50 pm 19:50 Cloudy 39 4 37 3 93 93 undefined N/A 29.97 1015 10 16 0.00 0.00
7:53 pm 19:53 Cloudy 40 4.4 36 2.2 86 86 undefined N/A 29.99 1016 10 16 0.00 0.00
8:04 pm 20:04 Cloudy 39 4 36 2 87 87 undefined N/A 29.97 1015 10 16 0.00 0.00
8:18 pm 20:18 Cloudy 39 4 36 2 87 87 NE 7 11 29.97 1015 10 16 0.00 0.00
8:36 pm 20:36 Cloudy 39 3.9 36 2.2 89 89 NE 6 9 29.97 1015 10 16 0.00 0.00
8:51 pm 20:51 Cloudy 39 4 36 2 87 87 NE 8 13 29.97 1015 10 16 0.00 0.00
8:53 pm 20:53 Cloudy 38 3.3 36 2.2 93 93 NE 7 11 30.01 1016 10 16 0.00 0.00
9:41 pm 21:41 Cloudy 37 2.8 35 1.7 93 93 NE 8 13 30.00 1016 10 16 0.00 0.00
9:53 pm 21:53 Cloudy 37 2.8 35 1.7 93 93 NE 8 13 30.03 1017 10 16 0.00 0.00
10:53 pm 22:53 Cloudy with Mist and Fog 36 2.2 35 1.7 97 97 NE 7 11 30.04 1017 5 8 0.00 0.00
11:53 pm 23:53 Cloudy 36 2.2 35 1.7 97 97 Calm 30.03 1017 8 13 0.00 0.00

Powered by AerisWeather